Weather History for KJKL - October, 2011

Change the Weather History Date:

Wednesday, October 26, 2011

  Actual Average Record
Temperature  
Mean Temperature 64 °F 55 °F  
Max Temperature 74 °F 65 °F 86 °F (1991)
Min Temperature 54 °F 45 °F 29 °F (2013)
Degree Days  
Heating Degree Days 1 10  
Month to date heating degree days 176 190  
Since 1 July heating degree days 239 242  
Cooling Degree Days 0 0  
Month to date cooling degree days 14 30  
Year to date cooling degree days 1252 1151  
Growing Degree Days 14 (Base 50)    
Moisture  
Dew Point 51 °F    
Average Humidity 67    
Maximum Humidity 93    
Minimum Humidity 40    
Precipitation  
Precipitation 0.32 in 0.11 in 0.94 in (1997)
Month to date precipitation 3.07 2.62  
Year to date precipitation 49.17 39.63  
Snow  
Snow 0.00 in 0.10 in - ()
Month to date snowfall 0.0 0.1  
Since 1 July snowfall 0.0 0.1  
Since 1 September snowfall 0.0 0.1  
Snow Depth 0.00 in    
Sea Level Pressure  
Sea Level Pressure 29.92 in    
Wind  
Wind Speed 3 mph (SSW)    
Max Wind Speed 16 mph    
Max Gust Speed 25 mph    
Visibility 6 miles    
Events Fog , Rain    
T = Trace of Precipitation, MM = Missing Value Source: NWS Daily Summary

Daily Weather History Graph

Daily Weather History Graph

Search for Another Location

Airport or City:

Trip Planner

Search our weather history database for the weather conditions in past years. The results will help you decide how hot, cold, wet, or windy it might be!

Date:

Astronomy

Oct. 26, 2011 Rise Set
Actual Time 7:51 AM EDT 6:42 PM EDT
Civil Twilight 7:25 AM EDT 7:08 PM EDT
Nautical Twilight 6:54 AM EDT 7:39 PM EDT
Astronomical Twilight 6:24 AM EDT 8:09 PM EDT
Moon 7:37 AM EDT (10/26) 6:25 PM EDT (10/26)
Length of Visible Light 11h 43m
Length of Day
10h 50m
Waning Crescent, 0% of the Moon is Illuminated
Oct 26
Waning Crescent
Oct 26
New
Nov 2
First Quarter
Nov 10
Full
Nov 18
Last Quarter

Hourly Weather History & Observations

Time (EDT) Temp. Dew Point Humidity Pressure Visibility Wind Dir Wind Speed Gust Speed Precip Events Conditions
12:53 AM 60.1 °F 39.0 °F 46% 30.02 in 10.0 mi SSW 3.5 mph - N/A   Clear
1:53 AM 59.0 °F 39.9 °F 49% 30.03 in 10.0 mi Variable 4.6 mph - N/A   Clear
2:53 AM 57.9 °F 41.0 °F 53% 30.02 in 10.0 mi Variable 4.6 mph - N/A   Clear
3:53 AM 57.0 °F 42.1 °F 57% 30.01 in 10.0 mi Variable 3.5 mph - N/A   Clear
4:53 AM 55.9 °F 43.0 °F 62% 30.00 in 10.0 mi Variable 3.5 mph - N/A   Clear
5:53 AM 57.0 °F 43.0 °F 59% 29.99 in 10.0 mi Variable 3.5 mph - N/A   Clear
6:53 AM 55.4 °F 42.8 °F 63% 30.02 in 10.0 mi Variable 4.6 mph - N/A   Clear
7:53 AM 57.9 °F 43.0 °F 58% 29.99 in 10.0 mi Variable 5.8 mph - N/A   Overcast
8:53 AM 60.8 °F 44.6 °F 55% 30.02 in 10.0 mi Calm Calm - N/A   Overcast
9:53 AM 62.1 °F 45.0 °F 53% 30.00 in 10.0 mi Variable 4.6 mph - N/A   Scattered Clouds
10:53 AM 66.2 °F 46.4 °F 49% 30.00 in 10.0 mi Variable 3.5 mph - N/A   Scattered Clouds
11:53 AM 69.1 °F 46.0 °F 44% 29.96 in 10.0 mi Variable 4.6 mph - 0.00 in   Overcast
12:53 PM 69.1 °F 45.0 °F 42% 29.95 in 10.0 mi SW 8.1 mph 19.6 mph N/A   Overcast
1:53 PM 72.0 °F 46.0 °F 40% 29.91 in 10.0 mi Variable 6.9 mph 16.1 mph N/A   Mostly Cloudy
2:53 PM 72.0 °F 46.9 °F 41% 29.89 in 10.0 mi Variable 5.8 mph 18.4 mph N/A   Mostly Cloudy
3:53 PM 71.1 °F 46.9 °F 42% 29.88 in 10.0 mi Variable 3.5 mph - N/A   Scattered Clouds
4:53 PM 70.0 °F 48.0 °F 46% 29.87 in 10.0 mi Variable 3.5 mph - N/A   Overcast
5:53 PM 70.0 °F 48.0 °F 46% 29.85 in 10.0 mi Calm Calm - N/A   Overcast
6:53 PM 60.1 °F 55.0 °F 83% 29.90 in 3.0 mi Variable 3.5 mph - 0.09 in Rain Heavy Rain
7:02 PM 59.0 °F 55.4 °F 88% 29.92 in 1.8 mi Calm Calm - 0.03 in Rain Heavy Rain
7:15 PM 57.2 °F 55.4 °F 94% 29.92 in 2.5 mi Calm Calm - 0.08 in Rain Rain
7:22 PM 59.0 °F 55.4 °F 88% 29.93 in 3.0 mi WSW 3.5 mph - 0.09 in Rain Rain
7:34 PM 59.0 °F 55.4 °F 88% 29.91 in 2.5 mi Calm Calm - 0.14 in Rain Heavy Rain
7:42 PM 59.0 °F 55.4 °F 88% 29.91 in 1.2 mi Variable 3.5 mph - 0.16 in Rain Rain
7:53 PM 57.9 °F 55.9 °F 93% 29.89 in 1.0 mi Calm Calm - 0.17 in Rain Light Rain
7:59 PM 57.2 °F 55.4 °F 94% 29.91 in 3.0 mi Calm Calm - 0.00 in Rain Light Rain
8:15 PM 57.2 °F 55.4 °F 94% 29.91 in 1.5 mi Calm Calm - 0.00 in Rain Light Rain
8:34 PM 57.2 °F 55.4 °F 94% 29.90 in 0.5 mi Calm Calm - 0.02 in Fog , Rain Light Rain
8:40 PM 57.2 °F 55.4 °F 94% 29.90 in 2.5 mi Calm Calm - 0.02 in Rain Light Rain
8:53 PM 57.9 °F 55.9 °F 93% 29.88 in 4.0 mi Calm Calm - 0.03 in Rain Rain
8:57 PM 57.2 °F 55.4 °F 94% 29.89 in 1.5 mi Calm Calm - 0.02 in Rain Rain
9:07 PM 57.2 °F 55.4 °F 94% 29.88 in 3.0 mi SSE 4.6 mph - 0.03 in Rain Rain
9:10 PM 57.2 °F 55.4 °F 94% 29.88 in 1.8 mi Calm Calm - 0.03 in Rain Light Rain
9:17 PM 57.2 °F 55.4 °F 94% 29.87 in 1.0 mi Calm Calm - 0.03 in Rain Light Rain
9:22 PM 57.2 °F 55.4 °F 94% 29.87 in 2.5 mi SSE 3.5 mph - 0.03 in Rain Light Rain
9:30 PM 57.2 °F 55.4 °F 94% 29.87 in 9.0 mi Calm Calm - 0.03 in   Overcast
9:53 PM 57.9 °F 55.0 °F 90% 29.85 in 8.0 mi Calm Calm - 0.03 in   Mostly Cloudy
10:24 PM 57.2 °F 55.4 °F 94% 29.87 in 1.8 mi Calm Calm - N/A   Overcast
10:28 PM 57.2 °F 55.4 °F 94% 29.87 in 0.8 mi Calm Calm - N/A   Overcast
10:49 PM 57.2 °F 55.4 °F 94% 29.86 in 0.5 mi Calm Calm - N/A Fog Fog
10:53 PM 57.0 °F 55.9 °F 96% 29.84 in 0.8 mi Calm Calm - N/A   Overcast
10:59 PM 57.2 °F 55.4 °F 94% 29.86 in 2.0 mi SSW 3.5 mph - N/A   Overcast
11:09 PM 57.2 °F 55.4 °F 94% 29.86 in 6.0 mi Variable 3.5 mph - N/A   Overcast
11:53 PM 57.9 °F 55.0 °F 90% 29.83 in 10.0 mi Variable 3.5 mph - N/A   Mostly Cloudy